Location: Casone le Fosse
(44.6547°N, 12.1103°E)
Time: 12:09:20
(UTC+00:00)

FALCON 9 DEB - Pass Details

Date: 29 October 2020
Orbit: 383 x 397 km, 53.0° (Epoch: 27 November)

Event Time Altitude Azimuth Distance (km) Brightness Sun altitude
Rises 16:20:09 0° 241° (WSW) 2,311 8.9 -3.5°
Reaches altitude 10° 16:22:13 10° 244° (WSW) 1,454 7.6 -3.9°
Maximum altitude 16:25:28 69° 329° (NNW) 433 3.2 -4.5°
Drops below altitude 10° 16:28:43 10° 53° (NE) 1,454 5.2 -5.0°
Enters shadow 16:29:37 - 55° (NE) 1,826 5.7 -5.2°
